Total_Precipitation_Accumulation
0.00 0.00 0.00 0.00 0.00 0.00 0.00 0.00 0.00 0.00 0.00 0.00 0.00 0.00 0.00 0.00 0.00 0.00 0.00 0.00 0.00 0.00 0.00 0.00 0.00 0.10 0.46 0.69 1.24 1.43 1.58 1.71 1.83 2.14 2.06 1.52 0.83 0.16 0.03 0.01 0.01 0.04 0.05
0.00 0.00 0.00 0.00 0.00 0.00 0.00 0.00 0.00 0.00 0.00 0.00 0.00 0.00 0.00 0.00 0.00 0.00 0.00 0.00 0.00 0.00 0.00 0.00 0.00 0.04 0.24 0.62 0.75 1.25 1.68 1.86 1.75 1.62 1.58 1.78 1.45 0.60 0.11 0.01 0.01 0.04 0.03
0.00 0.00 0.00 0.00 0.00 0.00 0.00 0.00 0.00 0.00 0.00 0.00 0.00 0.00 0.00 0.00 0.00 0.00 0.00 0.00 0.00 0.00 0.00 0.00 0.00 0.02 0.10 0.30 0.71 0.91 1.10 1.46 1.59 1.36 1.21 1.23 1.14 0.72 0.34 0.03 0.01 0.04 0.02
0.00 0.00 0.00 0.00 0.00 0.00 0.00 0.00 0.00 0.00 0.00 0.00 0.00 0.00 0.00 0.00 0.00 0.00 0.00 0.00 0.00 0.00 0.00 0.00 0.00 0.01 0.11 0.21 0.50 1.05 1.16 0.93 1.26 1.32 1.03 0.89 0.89 0.54 0.54 0.16 0.02 0.04 0.01
0.00 0.00 0.00 0.00 0.00 0.00 0.00 0.00 0.00 0.00 0.00 0.00 0.00 0.00 0.00 0.00 0.00 0.00 0.00 0.00 0.00 0.00 0.00 0.00 0.00 0.00 0.06 0.25 0.38 0.67 1.11 1.20 1.04 1.02 0.98 0.91 0.91 0.74 0.48 0.23 0.08 0.08 0.02
0.00 0.00 0.00 0.00 0.00 0.00 0.00 0.00 0.00 0.00 0.00 0.00 0.00 0.00 0.00 0.00 0.00 0.00 0.00 0.00 0.00 0.00 0.00 0.00 0.00 0.00 0.02 0.15 0.38 0.45 0.66 1.14 1.30 1.09 0.87 0.75 0.61 0.62 0.52 0.27 0.14 0.05 0.03
0.00 0.00 0.00 0.00 0.00 0.00 0.00 0.00 0.00 0.00 0.00 0.00 0.00 0.00 0.00 0.00 0.00 0.00 0.00 0.00 0.00 0.00 0.00 0.00 0.00 0.00 0.00 0.07 0.31 0.40 0.41 0.60 1.03 1.13 1.00 0.63 0.38 0.21 0.28 0.20 0.16 0.12 0.07
0.00 0.00 0.00 0.00 0.00 0.00 0.00 0.00 0.00 0.00 0.00 0.00 0.00 0.00 0.00 0.00 0.00 0.00 0.00 0.00 0.00 0.00 0.00 0.00 0.00 0.00 0.00 0.05 0.18 0.27 0.35 0.53 0.78 0.78 0.78 0.66 0.46 0.38 0.31 0.50 0.33 0.31 0.12
0.00 0.00 0.00 0.00 0.00 0.00 0.00 0.00 0.00 0.00 0.00 0.00 0.00 0.00 0.00 0.00 0.00 0.00 0.00 0.00 0.00 0.00 0.00 0.00 0.00 0.00 0.00 0.01 0.10 0.14 0.20 0.45 0.70 0.75 0.56 0.62 0.58 0.54 0.46 0.38 0.28 0.19 0.16
0.00 0.00 0.00 0.00 0.00 0.00 0.00 0.00 0.00 0.00 0.00 0.00 0.00 0.00 0.00 0.00 0.00 0.00 0.00 0.00 0.00 0.00 0.00 0.00 0.00 0.00 0.00 0.00 0.03 0.07 0.12 0.30 0.63 0.68 0.66 0.64 0.58 0.53 0.59 0.38 0.25 0.16 0.09
0.00 0.00 0.00 0.00 0.00 0.00 0.00 0.00 0.00 0.00 0.00 0.00 0.00 0.00 0.00 0.00 0.00 0.00 0.00 0.00 0.00 0.00 0.00 0.00 0.00 0.00 0.00 0.00 0.00 0.03 0.08 0.24 0.53 0.70 0.68 0.66 0.54 0.57 0.49 0.46 0.25 0.21 0.20
0.00 0.00 0.00 0.00 0.00 0.00 0.00 0.00 0.00 0.00 0.00 0.00 0.00 0.00 0.00 0.00 0.00 0.00 0.00 0.00 0.00 0.00 0.00 0.00 0.00 0.00 0.00 0.00 0.00 0.01 0.06 0.17 0.39 0.58 0.61 0.64 0.63 0.55 0.46 0.33 0.35 0.26 0.24
0.00 0.00 0.00 0.00 0.00 0.00 0.00 0.00 0.00 0.00 0.00 0.00 0.00 0.00 0.00 0.00 0.00 0.00 0.00 0.00 0.00 0.00 0.00 0.00 0.00 0.00 0.00 0.00 0.00 0.00 0.02 0.13 0.29 0.44 0.48 0.53 0.60 0.71 0.57 0.44 0.28 0.24 0.24
0.00 0.00 0.00 0.00 0.00 0.00 0.00 0.00 0.00 0.00 0.00 0.00 0.00 0.00 0.00 0.00 0.00 0.00 0.00 0.00 0.00 0.00 0.00 0.00 0.00 0.00 0.00 0.00 0.00 0.00 0.00 0.07 0.22 0.31 0.38 0.41 0.47 0.55 0.54 0.49 0.36 0.24 0.29
0.00 0.00 0.00 0.00 0.00 0.00 0.00 0.00 0.00 0.00 0.00 0.00 0.00 0.00 0.00 0.00 0.00 0.00 0.00 0.00 0.00 0.00 0.00 0.00 0.00 0.00 0.00 0.00 0.00 0.00 0.00 0.03 0.13 0.21 0.27 0.31 0.40 0.52 0.54 0.48 0.44 0.30 0.28
0.00 0.00 0.00 0.00 0.00 0.00 0.00 0.00 0.00 0.00 0.00 0.02 0.02 0.00 0.00 0.01 0.01 0.01 0.00 0.01 0.01 0.01 0.00 0.01 0.01 0.00 0.00 0.00 0.00 0.00 0.00 0.03 0.09 0.13 0.24 0.26 0.43 0.61 0.58 0.52 0.45 0.37 0.22
0.00 0.00 0.00 0.00 0.00 0.00 0.00 0.00 0.00 0.00 0.01 0.01 0.01 0.01 0.01 0.02 0.01 0.01 0.01 0.01 0.01 0.01 0.01 0.00 0.01 0.00 0.00 0.00 0.00 0.00 0.00 0.02 0.07 0.09 0.19 0.27 0.27 0.55 0.66 0.58 0.46 0.33 0.22
0.00 0.00 0.00 0.00 0.00 0.00 0.00 0.00 0.00 0.01 0.01 0.01 0.01 0.02 0.04 0.03 0.01 0.02 0.03 0.02 0.02 0.02 0.01 0.01 0.00 0.00 0.00 0.00 0.00 0.00 0.01 0.04 0.07 0.10 0.19 0.29 0.28 0.45 0.73 0.70 0.57 0.38 0.30
0.00 0.00 0.00 0.00 0.00 0.00 0.00 0.01 0.01 0.01 0.01 0.01 0.01 0.02 0.04 0.06 0.03 0.04 0.03 0.02 0.04 0.04 0.02 0.01 0.01 0.01 0.00 0.00 0.00 0.01 0.01 0.05 0.09 0.10 0.17 0.28 0.29 0.44 0.69 0.75 0.59 0.56 0.31
0.00 0.00 0.00 0.00 0.00 0.00 0.00 0.01 0.01 0.02 0.02 0.02 0.03 0.03 0.04 0.04 0.05 0.03 0.04 0.03 0.04 0.05 0.04 0.03 0.01 0.00 0.00 0.00 0.00 0.02 0.02 0.05 0.10 0.11 0.14 0.35 0.37 0.48 0.55 0.69 0.53 0.52 0.43
0.00 0.00 0.00 0.00 0.01 0.01 0.01 0.01 0.01 0.02 0.03 0.04 0.04 0.04 0.04 0.04 0.03 0.03 0.04 0.05 0.06 0.07 0.06 0.06 0.03 0.01 0.01 0.00 0.01 0.02 0.03 0.05 0.11 0.14 0.12 0.20 0.30 0.38 0.49 0.63 0.54 0.34 0.32
0.00 0.00 0.00 0.00 0.00 0.01 0.03 0.01 0.01 0.01 0.03 0.04 0.05 0.05 0.05 0.04 0.03 0.04 0.04 0.03 0.05 0.08 0.07 0.08 0.06 0.02 0.00 0.01 0.01 0.03 0.07 0.11 0.14 0.13 0.10 0.14 0.26 0.28 0.29 0.51 0.58 0.55 0.50
0.00 0.00 0.00 0.00 0.00 0.00 0.02 0.05 0.01 0.03 0.04 0.04 0.06 0.07 0.06 0.04 0.04 0.05 0.04 0.04 0.05 0.07 0.06 0.06 0.06 0.04 0.01 0.00 0.02 0.04 0.08 0.13 0.15 0.17 0.23 0.24 0.27 0.25 0.26 0.36 0.53 0.74 0.67
0.01 0.00 0.00 0.00 0.00 0.00 0.01 0.03 0.02 0.03 0.05 0.05 0.05 0.09 0.09 0.07 0.05 0.05 0.04 0.05 0.06 0.07 0.06 0.05 0.03 0.02 0.02 0.01 0.01 0.03 0.07 0.09 0.12 0.27 0.28 0.31 0.33 0.41 0.43 0.66 0.71 0.67 0.54
0.01 0.00 0.00 0.00 0.00 0.00 0.01 0.02 0.02 0.04 0.05 0.03 0.04 0.10 0.11 0.13 0.11 0.09 0.05 0.04 0.03 0.04 0.06 0.03 0.02 0.02 0.02 0.01 0.02 0.03 0.05 0.06 0.09 0.17 0.23 0.29 0.55 0.79 0.88 0.99 0.87 0.72 0.58
0.01 0.00 0.00 0.00 0.00 0.00 0.00 0.02 0.03 0.05 0.08 0.07 0.04 0.06 0.14 0.17 0.16 0.15 0.10 0.03 0.04 0.06 0.08 0.04 0.02 0.01 0.01 0.01 0.03 0.06 0.11 0.17 0.18 0.20 0.31 0.27 0.36 0.54 0.65 0.75 0.73 0.58 0.48